EW1296 Weather Reports


Display with metric or nautical units.
time (UTC)temp
F
wind
direction
speed
MPH
gust
MPH
rain 1hr
in
rain 24hr
in
rain mn
in
humidity
%
barometer
mb
20260510194516 72 225 1.0 4.0 0.00 0.14 0.01 66 1013.0
20260510194037 72 135 1.0 4.0 0.00 0.14 0.01 66 1013.0
20260510193516 72 158 1.0 3.0 0.00 0.14 0.01 66 1013.0
20260510193037 72 180 1.0 4.0 0.00 0.14 0.01 67 1013.0
20260510192516 73 225 2.0 5.0 0.00 0.14 0.01 69 1012.9
20260510192017 73 225 2.0 4.0 0.00 0.14 0.01 71 1013.1
20260510191516 73 203 1.0 6.0 0.00 0.14 0.01 69 1012.9
20260510191137 73 225 1.0 7.0 0.00 0.14 0.01 64 1013.2
20260510190515 73 203 1.0 4.0 0.00 0.14 0.01 63 1013.0
20260510190016 73 135 1.0 4.0 0.00 0.14 0.01 62 1012.9
20260510185517 74 135 1.0 4.0 0.00 0.14 0.01 61 1013.0
20260510185016 74 135 2.0 5.0 0.00 0.14 0.01 61 1013.1
20260510184516 74 225 2.0 9.0 0.00 0.14 0.01 61 1013.2
20260510184017 74 113 1.0 4.0 0.00 0.15 0.01 61 1013.2
20260510183515 74 225 2.0 4.0 0.00 0.16 0.01 62 1013.3
20260510183016 74 225 1.0 9.0 0.00 0.16 0.01 64 1013.3
20260510182537 73 203 1.0 4.0 0.00 0.16 0.01 65 1013.3
20260510182017 72 225 4.0 8.0 0.00 0.16 0.01 65 1013.3
20260510181516 72 225 3.0 8.0 0.00 0.17 0.01 65 1013.4
20260510181035 72 225 3.0 9.0 0.00 0.17 0.01 65 1013.4
20260510180516 72 225 2.0 8.0 0.00 0.17 0.01 67 1013.3
20260510180016 71 225 4.0 12.0 0.00 0.17 0.01 66 1013.2
20260510175516 71 225 2.0 11.0 0.00 0.17 0.01 66 1013.2
20260510175016 71 225 3.0 9.0 0.00 0.17 0.01 67 1013.2
20260510174516 71 225 5.0 7.0 0.00 0.17 0.01 66 1013.2
20260510174017 72 225 1.0 5.0 0.00 0.17 0.01 65 1013.2
20260510173516 72 225 1.0 4.0 0.00 0.17 0.01 66 1013.2
20260510173035 71 0.0 2.0 0.00 0.17 0.01 68 1013.1
20260510172516 71 225 1.0 7.0 0.00 0.17 0.01 68 1013.1
20260510172017 70 225 2.0 5.0 0.00 0.17 0.01 69 1013.2
20260510171516 70 225 2.0 8.0 0.00 0.17 0.01 69 1013.2
20260510171116 69 225 3.0 5.0 0.00 0.17 0.01 69 1013.2
20260510170517 69 203 2.0 6.0 0.00 0.17 0.01 70 1013.3
20260510170036 69 225 3.0 6.0 0.00 0.18 0.01 69 1013.3
20260510165517 69 225 2.0 5.0 0.00 0.18 0.01 70 1013.3
20260510165016 69 225 2.0 5.0 0.00 0.18 0.01 70 1013.4
20260510164536 69 225 1.0 4.0 0.00 0.18 0.01 71 1013.5
20260510164015 68 113 1.0 4.0 0.00 0.18 0.01 70 1013.5
20260510163515 68 225 1.0 5.0 0.00 0.18 0.01 72 1013.6
20260510163016 68 113 1.0 4.0 0.00 0.18 0.01 73 1013.6
20260510162517 67 0.0 2.0 0.00 0.18 0.01 75 1013.7
20260510162017 66 0.0 2.0 0.00 0.18 0.01 76 1013.6
20260510161515 65 270 2.0 6.0 0.00 0.18 0.01 77 1013.6
20260510161015 65 225 2.0 6.0 0.00 0.18 0.01 77 1013.6
20260510160515 65 225 2.0 7.0 0.00 0.18 0.01 77 1013.7
20260510160015 64 248 2.0 5.0 0.00 0.18 0.01 79 1013.8
20260510155515 64 158 1.0 5.0 0.00 0.18 0.01 80 1013.7
20260510155015 64 0.0 3.0 0.00 0.18 0.01 82 1013.9
20260510154515 63 0.0 3.0 0.00 0.18 0.01 83 1013.9
20260510154015 62 225 2.0 6.0 0.00 0.18 0.01 83 1013.9
20260510153515 62 225 2.0 5.0 0.00 0.18 0.01 84 1014.0
20260510153036 62 0.0 5.0 0.00 0.18 0.01 86 1014.0
20260510152516 62 135 1.0 4.0 0.00 0.18 0.01 86 1014.0
20260510152016 61 0.0 3.0 0.00 0.18 0.01 87 1013.9
20260510151515 61 0.0 4.0 0.00 0.18 0.01 89 1014.0
20260510151036 61 225 1.0 5.0 0.00 0.18 0.01 89 1014.0
20260510150517 60 225 2.0 5.0 0.00 0.18 0.01 90 1014.0
20260510150015 60 0.0 3.0 0.00 0.18 0.01 91 1014.0
20260510145515 60 0.0 4.0 0.00 0.18 0.01 91 1013.9
20260510145057 60 0.0 4.0 0.00 0.18 0.01 92 1013.9
20260510144516 59 248 1.0 3.0 0.00 0.18 0.01 92 1013.8
20260510144015 59 225 2.0 6.0 0.00 0.18 0.01 93 1013.8
20260510143515 58 0.0 3.0 0.00 0.18 0.01 93 1013.9
20260510143015 58 248 1.0 3.0 0.00 0.18 0.01 93 1013.9
20260510142515 58 248 1.0 3.0 0.00 0.18 0.01 93 1013.9
20260510142016 58 225 1.0 4.0 0.00 0.18 0.01 93 1013.9
20260510141535 57 225 1.0 4.0 0.00 0.18 0.01 93 1013.8
20260510141015 57 225 1.0 4.0 0.00 0.18 0.01 94 1013.8
20260510140517 57 225 1.0 4.0 0.00 0.18 0.01 94 1013.7
20260510140017 57 225 3.0 6.0 0.00 0.18 0.01 94 1013.7
20260510135519 57 0.0 2.0 0.00 0.18 0.01 94 1013.6
20260510135018 57 225 1.0 4.0 0.00 0.18 0.01 94 1013.6
20260510134518 57 225 1.0 5.0 0.00 0.18 0.01 94 1013.6
20260510134018 57 225 3.0 5.0 0.00 0.18 0.01 94 1013.7
20260510133518 57 225 2.0 7.0 0.00 0.18 0.01 94 1013.8
20260510133040 57 248 3.0 5.0 0.00 0.18 0.01 94 1013.7
20260510132518 57 225 2.0 8.0 0.00 0.18 0.01 95 1013.6
20260510132017 57 225 2.0 8.0 0.00 0.18 0.01 95 1013.5
20260510131518 57 0.0 2.0 0.00 0.18 0.01 95 1013.3
20260510131017 56 135 1.0 3.0 0.00 0.18 0.01 95 1013.2
20260510130537 56 113 1.0 3.0 0.00 0.18 0.01 95 1013.2
20260510130017 55 135 1.0 4.0 0.00 0.18 0.01 95 1013.2
20260510125517 55 135 1.0 4.0 0.00 0.18 0.01 95 1013.1
20260510125018 55 113 2.0 7.0 0.00 0.18 0.01 95 1013.1
20260510124517 55 0.0 2.0 0.00 0.18 0.01 95 1013.1
20260510124017 55 0.0 2.0 0.00 0.18 0.01 95 1013.2
20260510123518 55 0.0 0.0 0.00 0.18 0.01 95 1013.2
20260510123017 55 0.0 3.0 0.00 0.18 0.01 95 1013.1
20260510122517 55 0.0 1.0 0.00 0.18 0.01 95 1013.1
20260510122038 55 0.0 3.0 0.00 0.18 0.01 95 1013.0
20260510121518 55 135 1.0 4.0 0.00 0.18 0.01 95 1013.0
20260510121015 55 0.0 2.0 0.00 0.18 0.01 96 1013.0
20260510120518 55 135 1.0 4.0 0.00 0.18 0.01 95 1012.9
20260510120017 54 135 1.0 2.0 0.00 0.18 0.01 95 1012.9
20260510115517 54 135 1.0 4.0 0.00 0.18 0.01 95 1012.7
20260510115037 54 0.0 3.0 0.00 0.18 0.01 96 1012.7
20260510114517 54 0.0 3.0 0.00 0.18 0.01 95 1012.7
20260510114018 54 0.0 3.0 0.00 0.18 0.01 96 1012.7
20260510113517 54 135 1.0 3.0 0.00 0.18 0.01 95 1012.6
20260510113017 54 113 2.0 4.0 0.00 0.18 0.01 95 1012.5
20260510112517 54 113 2.0 5.0 0.00 0.18 0.01 95 1012.4
20260510112017 54 113 2.0 5.0 0.00 0.18 0.01 96 1012.3
20260510111517 54 135 2.0 7.0 0.00 0.18 0.01 95 1012.3
20260510111017 54 113 1.0 6.0 0.00 0.18 0.01 95 1012.2
20260510110538 54 113 1.0 4.0 0.00 0.18 0.01 95 1012.0
20260510110017 54 113 3.0 7.0 0.00 0.18 0.01 95 1012.0
20260510105518 54 113 2.0 6.0 0.00 0.18 0.01 95 1012.0
20260510105017 54 0.0 2.0 0.00 0.18 0.01 96 1012.1
20260510104518 54 23 1.0 4.0 0.00 0.18 0.01 95 1012.2
20260510104017 54 23 2.0 5.0 0.00 0.18 0.01 95 1012.2
20260510103517 54 68 1.0 4.0 0.00 0.18 0.01 95 1012.1
20260510103038 54 68 1.0 4.0 0.00 0.18 0.01 95 1012.1
20260510102517 54 0.0 3.0 0.00 0.18 0.01 95 1011.9
20260510102017 54 68 1.0 4.0 0.00 0.18 0.01 95 1011.8
20260510101518 54 90 1.0 5.0 0.00 0.18 0.01 95 1012.0
20260510101038 54 90 1.0 4.0 0.00 0.18 0.01 95 1012.0
20260510100517 54 45 1.0 4.0 0.00 0.18 0.01 95 1012.0
20260510100037 54 45 1.0 4.0 0.00 0.18 0.01 95 1011.9
20260510095517 54 45 1.0 5.0 0.00 0.18 0.01 95 1012.0
20260510095017 54 23 1.0 4.0 0.00 0.18 0.01 95 1011.9
20260510094517 54 45 2.0 6.0 0.00 0.18 0.01 95 1012.0
20260510094037 54 0.0 3.0 0.00 0.18 0.01 95 1012.1
20260510093518 54 0.0 3.0 0.00 0.18 0.01 95 1012.2
20260510093017 54 45 1.0 3.0 0.00 0.18 0.01 95 1012.2
20260510092517 54 0.0 3.0 0.00 0.18 0.01 95 1012.3
20260510092018 54 0.0 1.0 0.00 0.18 0.01 95 1012.3
20260510091517 54 0.0 3.0 0.00 0.18 0.01 95 1012.4
20260510091017 54 0.0 2.0 0.00 0.18 0.01 95 1012.3
20260510090557 54 45 1.0 5.0 0.00 0.18 0.01 95 1012.1
20260510090017 54 45 1.0 5.0 0.00 0.18 0.01 95 1012.2
20260510085517 54 23 1.0 3.0 0.00 0.18 0.01 95 1012.3
20260510085018 53 0 2.0 5.0 0.00 0.18 0.01 95 1012.4
20260510084538 53 0.0 3.0 0.00 0.18 0.01 95 1012.0
20260510084017 54 0.0 1.0 0.00 0.18 0.01 95 1011.8
20260510083517 54 0.0 3.0 0.00 0.18 0.01 95 1011.8
20260510083016 54 0.0 0.0 0.00 0.18 0.01 95 1011.7
20260510082517 54 0.0 0.0 0.00 0.18 0.01 95 1011.7
20260510082017 54 0.0 0.0 0.00 0.18 0.01 95 1011.6
20260510081517 54 0.0 3.0 0.00 0.18 0.01 95 1011.7
20260510081017 54 0.0 0.0 0.00 0.18 0.01 95 1011.6
20260510080517 54 0.0 0.0 0.00 0.18 0.01 95 1011.6
20260510080059 54 0.0 0.0 0.00 0.18 0.01 95 1011.5
20260510075518 54 0.0 1.0 0.00 0.18 0.01 95 1011.4
20260510075018 54 0.0 1.0 0.00 0.18 0.01 95 1011.4
20260510074517 54 0.0 0.0 0.00 0.18 0.01 95 1011.4
20260510074018 54 0.0 1.0 0.00 0.18 0.01 95 1011.3
20260510073537 54 0.0 1.0 0.00 0.18 0.01 95 1011.3
20260510073037 54 0.0 2.0 0.00 0.18 0.01 95 1011.4
20260510072518 54 0.0 4.0 0.00 0.18 0.01 95 1011.4
20260510072038 54 45 1.0 4.0 0.00 0.18 0.01 95 1011.3
20260510071538 54 0.0 2.0 0.00 0.18 0.01 94 1011.4
20260510071017 54 338 1.0 4.0 0.00 0.18 0.01 94 1011.4
20260510070517 54 0.0 2.0 0.00 0.18 0.01 94 1011.3
20260510070017 53 0.0 2.0 0.00 0.18 0.01 94 1011.3
20260510065517 53 0.0 2.0 0.00 0.18 0.01 94 1011.3
20260510065057 53 0.0 1.0 0.00 0.18 0.01 94 1011.2
20260510064539 53 0.0 1.0 0.01 0.18 0.01 94 1011.2
20260510064017 53 0.0 0.0 0.01 0.18 0.01 94 1011.1
20260510063517 53 0.0 1.0 0.01 0.18 0.01 94 1011.0
20260510063017 53 0.0 1.0 0.01 0.18 0.01 94 1011.0
20260510062516 53 0.0 1.0 0.01 0.18 0.01 94 1011.0
20260510062017 53 0.0 2.0 0.01 0.18 0.01 94 1011.1
20260510061516 53 0.0 1.0 0.01 0.18 0.01 94 1011.1
20260510061036 53 0.0 2.0 0.01 0.18 0.01 94 1011.1
20260510060518 54 0.0 1.0 0.01 0.18 0.01 94 1011.2
20260510060017 54 0.0 3.0 0.01 0.18 0.01 94 1011.2
20260510055538 54 0.0 2.0 0.01 0.18 0.01 94 1011.2
20260510055016 54 0.0 2.0 0.01 0.18 0.01 94 1011.3
20260510054517 54 0.0 0.0 0.00 0.17 0.00 94 1011.2
20260510054017 54 0.0 1.0 0.00 0.17 0.00 94 1011.2
20260510053516 54 0.0 1.0 0.00 0.17 0.00 94 1011.2
20260510053016 53 0.0 0.0 0.00 0.17 0.00 94 1011.3
20260510052517 54 0.0 2.0 0.00 0.17 0.00 94 1011.2
20260510052016 54 0.0 1.0 0.00 0.17 0.00 94 1011.2
20260510051516 54 0.0 1.0 0.00 0.17 0.00 94 1011.3
20260510051036 54 0.0 2.0 0.00 0.17 0.00 94 1011.3
20260510050516 54 0.0 1.0 0.00 0.17 0.00 94 1011.4
20260510050038 54 0.0 1.0 0.00 0.17 0.00 93 1011.4
20260510045516 54 0.0 0.0 0.00 0.17 0.00 93 1011.4
20260510045037 54 0.0 0.0 0.00 0.17 0.00 93 1011.5
20260510044517 54 0.0 0.0 0.00 0.17 0.00 93 1011.6
20260510044016 54 0.0 0.0 0.00 0.17 0.00 93 1011.6
20260510043516 54 0.0 0.0 0.00 0.17 0.00 93 1011.6
20260510043017 54 0.0 1.0 0.00 0.17 0.00 93 1011.6
20260510042518 54 0.0 0.0 0.00 0.17 0.00 93 1011.5
20260510042016 54 0.0 1.0 0.00 0.17 0.00 93 1011.4
20260510041517 54 0.0 2.0 0.00 0.17 0.00 93 1011.4
20260510041016 54 0.0 2.0 0.00 0.17 0.00 93 1011.4
20260510040517 54 0.0 1.0 0.00 0.17 0.00 93 1011.3
20260510040017 54 0.0 2.0 0.00 0.17 0.17 93 1011.3
20260510035518 54 0.0 3.0 0.00 0.17 0.17 92 1011.3
20260510035017 55 0.0 2.0 0.00 0.17 0.17 93 1011.2
20260510034517 55 0.0 1.0 0.00 0.17 0.17 93 1011.2
20260510034017 54 0.0 1.0 0.00 0.17 0.17 93 1011.2
20260510033518 54 0.0 2.0 0.00 0.17 0.17 93 1011.1
20260510033018 54 0.0 1.0 0.00 0.17 0.17 92 1011.0
20260510032517 55 0.0 2.0 0.00 0.17 0.17 92 1011.1
20260510032018 55 0.0 1.0 0.00 0.17 0.17 92 1011.2
20260510031517 55 0.0 2.0 0.00 0.17 0.17 92 1011.2
20260510031017 55 113 1.0 3.0 0.00 0.17 0.17 92 1011.2
20260510030517 55 113 2.0 4.0 0.00 0.17 0.17 92 1011.1
20260510030039 55 135 1.0 4.0 0.00 0.17 0.17 92 1011.1
20260510025537 55 0.0 2.0 0.00 0.17 0.17 92 1011.1
20260510025018 55 0.0 3.0 0.00 0.17 0.17 92 1011.1
20260510024617 55 0.0 0.0 0.00 0.17 0.17 92 1011.1
20260510024017 56 0.0 1.0 0.00 0.17 0.17 92 1011.1
20260510023518 56 0.0 1.0 0.00 0.17 0.17 92 1011.1
20260510023037 56 0.0 1.0 0.00 0.17 0.17 92 1011.3
20260510022517 56 0.0 2.0 0.00 0.17 0.17 92 1011.2
20260510022037 56 135 1.0 3.0 0.00 0.17 0.17 92 1011.2
20260510021517 56 0.0 2.0 0.00 0.17 0.17 91 1011.2
20260510021016 56 135 1.0 3.0 0.00 0.17 0.17 91 1011.2
20260510020538 56 0.0 1.0 0.00 0.17 0.17 91 1011.2
20260510020017 56 0.0 2.0 0.00 0.17 0.17 91 1011.1
20260510015517 56 0.0 1.0 0.00 0.17 0.17 91 1011.1
20260510015017 56 0.0 2.0 0.00 0.17 0.17 91 1011.1
20260510014558 56 0.0 1.0 0.00 0.17 0.17 91 1011.0
20260510014017 56 0.0 2.0 0.00 0.17 0.17 91 1011.0
20260510013517 56 0.0 1.0 0.00 0.17 0.17 91 1011.0
20260510013017 56 0.0 1.0 0.00 0.17 0.17 91 1011.0
20260510012518 56 0.0 1.0 0.00 0.17 0.17 91 1011.0
20260510012018 56 0.0 2.0 0.00 0.17 0.17 91 1010.9
20260510011517 56 113 1.0 2.0 0.00 0.17 0.17 91 1010.9
20260510011017 56 113 1.0 3.0 0.00 0.17 0.17 91 1010.9
20260510010517 57 0.0 2.0 0.00 0.17 0.17 91 1010.8
20260510010016 57 0.0 2.0 0.00 0.17 0.17 91 1010.7
20260510005517 57 113 1.0 4.0 0.00 0.17 0.17 90 1010.7
20260510005017 57 90 1.0 2.0 0.00 0.17 0.17 90 1010.6
20260510004517 57 0.0 3.0 0.00 0.17 0.17 90 1010.6
20260510004016 57 0.0 3.0 0.00 0.17 0.17 90 1010.6
20260510003518 57 0.0 2.0 0.00 0.17 0.17 90 1010.6
20260510003038 57 0.0 2.0 0.00 0.17 0.17 90 1010.6
20260510002517 57 0.0 1.0 0.00 0.17 0.17 90 1010.7
20260510002017 57 0.0 3.0 0.00 0.17 0.17 90 1010.6
20260510001518 57 113 1.0 3.0 0.00 0.17 0.17 90 1010.5
20260510001016 57 0.0 2.0 0.00 0.17 0.17 90 1010.5
20260510000517 57 0.0 2.0 0.00 0.17 0.17 90 1010.4
20260510000016 58 0.0 2.0 0.00 0.17 0.17 90 1010.5
20260509235538 58 0.0 1.0 0.00 0.17 0.17 90 1010.4
20260509235017 58 0.0 1.0 0.00 0.17 0.17 90 1010.4
20260509234538 58 0.0 1.0 0.00 0.17 0.17 89 1010.3
20260509234016 58 113 1.0 3.0 0.00 0.17 0.17 89 1010.2
20260509233516 58 113 2.0 5.0 0.01 0.17 0.17 89 1010.1
20260509233017 58 68 1.0 4.0 0.02 0.17 0.17 89 1010.1
20260509232516 59 68 1.0 2.0 0.04 0.17 0.17 89 1010.2
20260509232057 59 68 1.0 3.0 0.05 0.17 0.17 89 1010.2
20260509231516 59 113 1.0 4.0 0.07 0.17 0.17 89 1010.2
20260509231016 59 90 2.0 4.0 0.07 0.17 0.17 89 1010.3
20260509230517 59 113 2.0 6.0 0.08 0.17 0.17 89 1010.3
20260509230017 59 113 2.0 5.0 0.09 0.17 0.17 88 1010.3
20260509225718 59 113 1.0 4.0 0.11 0.17 0.17 88 1010.5
20260509225016 59 0.0 2.0 0.13 0.17 0.17 88 1010.6
20260509224708 59 0.0 3.0 0.13 0.17 0.17 87 1010.8
20260509223017 59 68 1.0 4.0 0.11 0.15 0.15 85 1010.7
20260509222517 59 0.0 2.0 0.09 0.13 0.13 85 1011.1
20260509222016 59 0.0 2.0 0.08 0.12 0.12 84 1011.4
20260509221536 59 0.0 1.0 0.06 0.10 0.10 84 1011.3
20260509221016 59 0.0 0.0 0.06 0.10 0.10 83 1011.0
20260509220516 60 0.0 2.0 0.05 0.09 0.09 83 1010.9
20260509220016 60 23 1.0 3.0 0.04 0.08 0.08 82 1010.8
20260509215516 60 315 3.0 9.0 0.02 0.06 0.06 82 1011.4
20260509215016 60 315 2.0 6.0 0.00 0.04 0.04 82 1011.5
20260509214517 60 0.0 2.0 0.00 0.04 0.04 82 1010.8
20260509214017 60 23 1.0 4.0 0.00 0.04 0.04 82 1010.6
20260509213517 60 68 1.0 6.0 0.00 0.04 0.04 82 1010.5
20260509213018 60 68 1.0 4.0 0.00 0.04 0.04 82 1010.5
20260509212516 60 0 1.0 4.0 0.00 0.04 0.04 82 1011.0
20260509212036 60 45 1.0 3.0 0.00 0.04 0.04 82 1011.0
20260509211516 60 0 1.0 4.0 0.00 0.04 0.04 83 1011.0
20260509211016 60 23 1.0 4.0 0.00 0.04 0.04 82 1010.9
20260509210518 60 45 1.0 6.0 0.00 0.04 0.04 82 1010.8
20260509210017 59 45 2.0 5.0 0.00 0.04 0.04 82 1010.7
20260509205516 59 338 1.0 4.0 0.00 0.04 0.04 82 1010.8
20260509205017 59 0 1.0 3.0 0.00 0.04 0.04 82 1011.0
20260509204517 59 0 2.0 8.0 0.00 0.04 0.04 82 1011.1
20260509204036 60 338 2.0 6.0 0.00 0.04 0.04 82 1011.0
20260509203536 60 293 2.0 7.0 0.00 0.04 0.04 82 1011.0
20260509203016 60 338 2.0 8.0 0.00 0.04 0.04 82 1011.0
20260509202516 60 0 2.0 6.0 0.00 0.04 0.04 83 1010.9
20260509202016 60 338 1.0 5.0 0.00 0.04 0.04 83 1010.9
20260509201516 60 338 2.0 5.0 0.00 0.04 0.04 83 1011.0
20260509201016 61 293 1.0 4.0 0.00 0.04 0.04 83 1011.1
20260509200516 61 0.0 0.0 0.00 0.04 0.04 84 1011.0
20260509200016 61 0.0 1.0 0.00 0.04 0.04 84 1011.0
20260509195517 61 0.0 0.0 0.00 0.04 0.04 84 1011.2
20260509195016 61 225 1.0 3.0 0.00 0.04 0.04 84 1011.4